Wind_Speed
34 33 35 39 34 32 30 30 27 27 31 30 29 25 21 19 18 17 18 13 14 7 7 6 7 5 2 3 2 1 3 2 2 5 6 1 3 4 5 11 7 6 6 3 24
36 34 34 36 39 36 32 30 29 26 26 30 26 26 23 19 18 21 19 16 14 14 7 8 9 7 3 2 2 1 3 4 5 2 4 2 1 8 5 8 4 8 7 10 28
39 36 33 32 34 37 36 32 29 28 24 27 28 24 22 20 15 25 23 18 17 14 13 9 7 8 5 3 2 2 5 3 2 4 6 5 3 1 11 2 8 11 13 17 36
42 39 36 34 32 33 35 35 32 29 27 25 28 26 22 20 8 6 20 25 20 17 17 11 10 8 5 4 3 2 8 6 5 9 11 4 0 1 6 2 3 9 11 19 32
45 42 39 35 32 31 32 33 35 31 28 26 27 27 26 23 12 5 8 24 26 21 19 16 14 8 5 8 6 2 3 14 17 20 16 8 4 3 4 4 6 9 17 19 26
46 45 42 38 33 31 30 31 34 34 30 29 26 28 29 19 22 8 6 19 28 23 20 20 12 10 6 5 6 6 7 8 7 12 8 5 3 2 2 7 11 14 20 21 22
49 48 45 40 35 33 30 29 31 35 32 30 28 29 29 20 18 18 5 4 17 23 21 22 8 10 5 5 8 5 4 9 13 5 4 5 6 5 5 7 13 18 21 22 22
49 46 45 41 38 34 30 28 27 32 32 29 26 31 13 29 14 22 24 14 10 18 21 19 14 3 3 3 3 5 2 3 5 10 9 7 14 12 15 10 15 19 22 23 23
50 47 45 41 39 35 31 27 25 29 30 27 28 27 9 20 25 21 23 20 13 13 18 17 14 4 5 3 2 3 4 5 6 14 5 8 8 16 24 18 18 22 24 24 23
49 47 48 45 40 36 31 26 24 26 28 27 24 14 14 27 37 23 19 14 20 20 18 9 7 3 1 4 8 5 4 4 7 5 8 9 16 5 10 17 26 26 27 29 29
50 49 50 48 42 38 34 31 26 17 35 22 22 5 9 18 23 30 25 20 19 17 8 7 5 16 17 6 5 6 5 9 4 10 5 15 20 10 25 12 16 25 25 26 31
53 51 51 48 43 40 41 35 40 17 24 13 6 20 13 25 18 32 28 19 13 11 8 4 16 15 6 3 4 4 2 4 4 4 7 8 17 15 11 15 26 26 30 31 28
55 53 53 50 43 43 48 36 32 28 10 14 11 24 19 23 10 31 33 19 11 12 17 15 4 12 10 5 10 9 8 3 5 2 3 2 9 9 8 26 29 32 35 35 32
59 56 54 50 47 48 45 36 27 27 4 7 9 16 16 16 5 23 35 22 5 17 15 13 8 15 8 15 13 15 8 6 6 2 5 5 8 8 9 15 13 30 35 40 39
60 58 56 57 50 53 52 41 36 15 5 8 13 10 17 15 15 12 35 18 9 6 8 8 12 15 17 16 12 8 8 13 7 4 3 4 4 6 5 9 14 24 34 41 45
61 59 58 54 42 45 49 44 30 4 7 8 16 14 15 11 7 17 22 19 7 5 6 7 2 17 11 13 17 9 5 4 3 3 12 11 8 8 11 9 9 20 32 36 38
62 62 61 56 47 52 53 42 6 8 1 9 13 18 19 9 6 7 11 15 10 12 16 8 16 3 9 11 8 10 9 4 7 7 17 10 9 22 7 8 13 17 31 32 31
64 61 55 48 50 53 53 15 9 3 6 2 13 19 15 17 11 5 12 14 18 4 4 13 8 16 7 11 6 19 16 5 7 6 9 3 9 7 12 32 36 33 31 25 19
63 56 46 42 53 58 42 15 5 7 7 11 15 19 11 10 9 8 11 19 17 16 12 7 10 1 10 8 9 8 16 12 3 3 2 6 8 6 8 10 22 28 28 31 29
59 46 40 45 56 55 19 8 2 6 7 13 6 5 12 20 11 17 16 15 11 24 11 5 2 3 7 12 14 15 7 11 4 5 6 5 6 10 3 13 15 7 18 23 19
46 24 41 45 50 37 16 7 4 5 9 5 5 5 6 11 10 19 10 4 23 9 26 3 5 1 3 11 20 6 13 9 6 3 5 3 7 7 18 18 19 10 16 14 17
21 5 46 51 11 7 8 11 8 6 5 4 5 6 6 7 11 15 11 10 21 23 18 15 5 10 14 6 2 14 12 19 10 19 3 1 11 3 8 9 11 14 14 11 11
15 22 41 46 5 9 6 6 4 4 4 3 4 3 3 7 5 6 8 2 15 15 11 14 8 9 3 3 4 7 15 19 19 2 18 12 10 4 5 0 8 14 14 15 13
19 7 8 19 9 17 16 8 5 7 4 6 6 6 5 3 4 6 5 3 3 17 24 15 6 10 13 5 5 13 18 18 23 13 22 19 19 8 6 6 7 14 17 16 11
11 3 7 8 4 12 11 12 8 5 4 7 4 4 7 4 3 5 4 1 3 7 3 6 12 14 14 8 3 11 19 25 24 34 17 26 21 16 12 13 20 26 23 18 14
10 10 11 7 20 16 8 8 14 6 7 5 7 6 5 7 9 7 7 6 5 5 8 6 7 8 16 13 12 12 16 16 26 29 25 27 18 20 22 11 20 24 24 22 18
16 27 22 9 4 7 5 9 13 8 2 14 12 7 8 14 10 9 8 5 3 6 5 4 2 7 19 11 14 14 28 24 24 27 30 27 38 6 10 8 17 27 34 35 23
Wind_Direction
229 226 228 228 223 221 218 217 216 213 211 214 214 211 209 204 205 204 206 213 210 194 213 200 211 211 159 204 166 117 90 172 21 11 305 305 114 122 149 139 134 139 158 182 170
226 224 224 226 224 222 217 216 216 213 209 210 209 210 210 209 212 218 212 208 207 206 186 183 188 180 126 211 232 158 134 215 168 297 293 311 107 141 140 123 103 134 154 161 170
226 223 221 222 224 220 219 215 211 214 208 205 205 205 205 202 213 236 224 211 209 198 195 190 187 170 145 177 225 219 185 56 283 317 328 301 115 130 147 231 197 194 172 169 173
224 222 220 219 220 219 217 213 212 210 209 205 201 198 195 189 198 198 213 218 210 200 190 186 181 168 141 160 185 290 239 159 280 327 325 295 243 167 184 193 239 225 192 173 180
222 220 219 215 214 217 216 212 208 205 205 206 199 193 186 190 200 187 213 200 201 201 193 185 173 163 178 169 172 213 247 214 232 287 266 273 239 227 232 219 206 198 189 187 190
222 217 217 215 215 214 213 213 206 202 201 202 200 194 190 204 198 175 69 186 197 193 190 185 194 185 167 195 175 205 227 209 232 249 267 220 231 263 273 203 197 201 197 198 197
219 217 213 216 216 211 208 207 206 200 196 199 199 196 197 194 209 208 184 84 191 193 187 188 171 186 173 149 221 221 159 264 266 253 255 291 291 232 176 172 186 196 202 204 207
217 214 211 210 211 207 203 196 199 196 193 194 196 195 207 199 185 196 217 205 169 191 195 189 192 185 191 220 135 152 172 204 245 200 226 171 260 233 223 191 199 203 204 209 214
212 211 210 201 206 199 195 192 189 187 189 188 190 193 209 199 196 194 202 201 167 181 190 201 206 197 178 152 87 221 199 183 280 208 167 181 246 232 244 224 221 213 209 218 225
211 207 205 194 198 194 187 180 171 173 179 183 191 182 220 204 200 189 190 188 193 187 189 193 167 139 106 164 203 195 190 194 203 234 216 219 253 251 239 237 240 225 220 223 227
208 202 203 190 192 187 175 159 152 170 179 185 196 170 185 188 192 194 194 185 190 186 183 183 180 206 200 192 205 169 182 213 236 237 192 224 246 235 241 241 240 231 224 224 230
204 199 199 186 189 181 178 174 171 194 172 191 195 199 167 180 173 192 184 176 184 195 139 173 216 205 182 189 223 240 229 244 284 274 180 260 254 247 238 241 240 240 236 238 236
197 192 195 185 184 178 183 182 167 156 148 191 178 185 167 180 175 192 192 183 181 192 192 205 226 168 177 178 216 236 221 227 237 280 206 324 267 253 241 242 247 250 250 242 236
191 187 189 179 176 180 182 172 161 155 101 180 186 200 170 167 198 197 189 176 193 207 191 229 184 178 176 213 197 226 169 215 262 256 233 164 273 245 232 237 223 240 243 243 244
185 183 185 179 173 180 177 161 160 160 142 183 173 186 198 180 146 186 188 185 171 167 180 190 184 188 201 210 191 220 175 205 219 227 316 221 266 261 210 233 238 238 240 244 246
180 180 182 176 177 173 168 162 160 110 228 173 155 167 159 186 188 150 183 198 181 180 203 232 235 193 205 197 195 153 88 57 78 154 251 223 218 224 227 219 238 239 241 245 249
178 178 180 173 169 170 163 164 162 193 308 168 172 167 171 168 170 159 168 186 189 191 215 194 228 268 197 200 187 181 157 205 214 211 240 183 210 247 241 239 226 232 240 247 257
175 174 172 173 174 166 161 157 195 188 195 224 150 159 175 148 197 139 166 196 213 179 168 212 224 199 165 219 200 200 193 178 201 198 248 104 231 240 221 234 246 247 253 255 244
168 166 164 168 170 163 153 182 189 193 161 148 132 158 174 181 159 163 183 206 210 200 200 200 225 250 197 176 175 183 212 205 81 10 67 209 274 292 256 262 259 251 247 249 250
157 153 157 167 167 161 158 145 208 171 124 139 127 164 176 176 164 189 186 201 212 208 204 208 297 236 181 180 227 216 167 200 214 192 231 245 256 233 292 246 250 254 242 247 233
144 141 158 163 165 163 184 151 174 120 121 111 139 111 166 176 179 183 197 237 200 172 200 188 200 292 123 204 194 184 205 213 188 175 222 257 251 215 217 219 237 228 238 241 215
131 112 159 159 153 173 175 143 134 145 110 95 92 95 138 169 190 194 201 197 199 185 195 199 231 228 219 175 212 242 216 201 207 215 223 188 250 209 248 252 235 210 195 196 192
106 114 157 159 145 165 135 142 123 126 128 133 116 137 168 148 149 178 193 294 180 180 186 181 220 232 208 266 206 229 223 207 223 123 223 226 246 329 17 144 182 179 177 170 156
121 131 115 160 138 157 158 167 108 111 105 105 115 91 97 135 45 157 168 267 177 199 210 194 199 226 227 225 147 209 201 222 211 225 235 228 247 235 245 225 209 191 186 178 177
115 94 139 160 176 156 146 156 127 125 101 126 47 147 140 113 118 182 183 256 271 197 153 222 231 215 237 260 313 230 219 215 209 224 218 237 233 223 211 203 205 199 198 203 203
115 138 101 88 125 136 146 179 165 145 135 181 134 161 155 163 183 176 159 189 193 191 176 190 256 219 238 238 228 237 241 234 222 228 231 247 251 221 241 220 212 217 212 216 213
119 133 130 130 91 132 181 152 185 124 64 159 141 148 198 217 206 230 230 248 224 174 162 130 306 251 257 224 235 237 230 220 231 235 219 229 234 141 221 222 211 212 212 219 222
Height
1473 1477 1481 1485 1492 1497 1501 1506 1511 1514 1518 1523 1527 1531 1535 1537 1540 1542 1543 1547 1547 1548 1550 1550 1551 1553 1554 1556 1556 1555 1560 1562 1559 1557 1555 1549 1549 1552 1551 1552 1553 1555 1557 1559 1561
1466 1471 1475 1479 1485 1491 1496 1502 1507 1511 1514 1520 1522 1528 1532 1535 1538 1538 1543 1544 1546 1548 1550 1551 1552 1553 1555 1555 1557 1556 1559 1556 1554 1555 1555 1551 1549 1550 1552 1553 1554 1555 1557 1558 1560
1459 1464 1470 1474 1478 1484 1490 1496 1503 1508 1511 1516 1519 1525 1529 1534 1538 1532 1538 1541 1544 1546 1548 1550 1550 1552 1554 1556 1557 1556 1556 1552 1553 1554 1554 1552 1550 1550 1550 1553 1552 1552 1554 1557 1560
1451 1458 1464 1469 1473 1478 1483 1490 1498 1504 1509 1513 1516 1522 1527 1531 1537 1528 1530 1536 1541 1544 1546 1548 1549 1552 1553 1555 1556 1558 1552 1549 1553 1553 1553 1553 1551 1550 1550 1550 1550 1552 1553 1555 1558
1442 1450 1457 1463 1468 1472 1477 1484 1492 1499 1505 1511 1514 1518 1523 1527 1527 1527 1527 1531 1537 1541 1543 1546 1548 1550 1552 1553 1556 1555 1553 1551 1551 1555 1557 1553 1551 1550 1549 1548 1549 1550 1552 1553 1556
1434 1441 1450 1457 1463 1468 1472 1479 1486 1493 1501 1508 1511 1515 1520 1523 1524 1526 1525 1527 1532 1537 1541 1543 1547 1549 1550 1552 1553 1551 1554 1553 1553 1554 1556 1553 1551 1550 1549 1546 1547 1549 1550 1552 1554
1426 1433 1442 1451 1458 1463 1469 1475 1481 1489 1497 1504 1509 1513 1516 1519 1521 1524 1526 1529 1531 1535 1539 1542 1545 1548 1549 1551 1550 1551 1553 1554 1549 1549 1551 1552 1551 1550 1547 1546 1547 1547 1548 1550 1552
1417 1426 1434 1442 1452 1458 1465 1471 1477 1485 1494 1501 1507 1510 1511 1516 1518 1522 1526 1529 1532 1535 1540 1542 1544 1546 1548 1549 1550 1552 1553 1559 1548 1548 1548 1553 1550 1544 1546 1546 1545 1545 1546 1547 1549
1406 1417 1428 1435 1445 1453 1461 1468 1475 1484 1493 1500 1505 1507 1508 1511 1515 1519 1522 1527 1531 1534 1538 1541 1544 1546 1548 1550 1554 1554 1560 1557 1553 1545 1545 1546 1542 1537 1541 1542 1543 1544 1543 1543 1544
1398 1408 1421 1430 1440 1448 1458 1466 1475 1484 1492 1498 1501 1510 1503 1502 1510 1515 1520 1525 1529 1532 1537 1540 1543 1546 1548 1551 1553 1556 1555 1553 1552 1542 1544 1545 1537 1534 1536 1536 1537 1538 1537 1537 1539
1389 1401 1414 1423 1435 1443 1454 1463 1475 1485 1483 1481 1484 1490 1488 1500 1508 1511 1517 1523 1528 1531 1534 1538 1541 1536 1537 1543 1543 1546 1548 1551 1544 1540 1543 1541 1534 1534 1531 1533 1532 1532 1533 1533 1533
1380 1394 1407 1417 1429 1438 1446 1448 1452 1453 1473 1481 1484 1491 1490 1494 1501 1508 1514 1521 1524 1527 1533 1538 1530 1530 1538 1542 1544 1547 1548 1549 1543 1538 1543 1541 1534 1528 1528 1527 1526 1527 1527 1529 1530
1371 1386 1399 1411 1424 1433 1437 1445 1456 1460 1475 1482 1484 1488 1492 1496 1498 1502 1510 1515 1520 1525 1526 1526 1523 1530 1538 1541 1545 1545 1549 1549 1547 1538 1538 1539 1536 1527 1521 1520 1519 1520 1520 1522 1522
1362 1378 1392 1406 1421 1426 1435 1446 1455 1462 1478 1481 1483 1486 1489 1494 1498 1500 1506 1512 1517 1517 1522 1525 1525 1528 1534 1536 1539 1544 1542 1545 1546 1544 1551 1538 1537 1519 1514 1514 1512 1510 1511 1512 1513
1354 1369 1387 1397 1403 1414 1426 1444 1455 1460 1488 1472 1479 1482 1485 1490 1492 1498 1502 1509 1512 1513 1520 1515 1518 1524 1528 1525 1536 1536 1536 1541 1544 1545 1545 1540 1544 1516 1511 1512 1505 1500 1500 1502 1503
1347 1364 1382 1396 1408 1417 1430 1444 1454 1468 1480 1466 1465 1473 1481 1486 1489 1494 1499 1505 1510 1513 1516 1516 1518 1517 1518 1522 1527 1531 1537 1541 1545 1545 1542 1531 1536 1509 1507 1504 1497 1492 1490 1492 1494
1343 1360 1377 1387 1394 1412 1426 1442 1452 1452 1457 1458 1457 1463 1473 1480 1488 1487 1494 1500 1504 1511 1511 1516 1514 1514 1517 1522 1526 1527 1536 1543 1545 1544 1525 1519 1534 1493 1495 1491 1485 1483 1481 1484 1487
1341 1359 1375 1386 1396 1409 1423 1441 1439 1455 1456 1444 1449 1461 1469 1476 1482 1486 1493 1497 1500 1503 1505 1511 1517 1509 1510 1512 1516 1521 1526 1535 1535 1534 1522 1524 1515 1493 1483 1481 1478 1476 1477 1480 1481
1340 1360 1372 1384 1394 1404 1420 1432 1428 1441 1435 1439 1449 1461 1466 1472 1474 1486 1493 1494 1492 1497 1499 1502 1501 1495 1498 1508 1510 1519 1519 1508 1526 1557 1537 1519 1500 1488 1481 1479 1474 1471 1471 1470 1471
1335 1352 1370 1382 1393 1405 1417 1424 1435 1430 1432 1436 1447 1454 1459 1466 1474 1483 1485 1482 1486 1486 1496 1501 1503 1500 1500 1506 1504 1501 1505 1519 1521 1531 1532 1510 1505 1482 1479 1475 1467 1466 1466 1466 1468
1335 1354 1369 1381 1396 1406 1406 1422 1433 1427 1427 1436 1449 1455 1458 1461 1472 1476 1475 1478 1479 1487 1494 1497 1498 1507 1502 1495 1492 1503 1503 1503 1502 1515 1508 1514 1488 1471 1464 1461 1457 1459 1462 1463 1464
1329 1349 1366 1378 1393 1402 1410 1418 1424 1428 1432 1437 1444 1452 1459 1464 1465 1469 1474 1473 1471 1479 1485 1489 1493 1495 1490 1493 1494 1491 1491 1496 1498 1497 1502 1501 1477 1460 1461 1459 1458 1457 1459 1461 1463
1334 1351 1371 1378 1387 1397 1408 1413 1419 1424 1432 1439 1444 1447 1454 1461 1472 1472 1470 1471 1471 1474 1476 1481 1485 1488 1489 1495 1493 1490 1484 1478 1481 1490 1487 1491 1470 1458 1457 1456 1457 1458 1460 1462 1463
1330 1352 1367 1380 1386 1391 1403 1411 1418 1422 1430 1433 1441 1445 1454 1462 1465 1472 1475 1471 1471 1471 1473 1476 1479 1473 1464 1465 1472 1478 1478 1479 1480 1487 1472 1474 1462 1459 1459 1458 1458 1459 1461 1461 1462
1333 1351 1358 1373 1388 1389 1398 1407 1417 1426 1427 1431 1442 1443 1449 1469 1469 1471 1470 1470 1469 1469 1472 1477 1469 1470 1470 1472 1468 1464 1468 1470 1471 1460 1474 1452 1461 1455 1452 1451 1451 1453 1457 1458 1459
1335 1351 1364 1377 1384 1392 1398 1411 1412 1422 1426 1434 1440 1445 1447 1456 1454 1466 1464 1466 1465 1468 1470 1473 1468 1465 1465 1469 1468 1470 1468 1465 1463 1458 1461 1450 1452 1444 1448 1449 1451 1450 1454 1455 1456
1336 1346 1357 1377 1387 1393 1401 1407 1412 1418 1427 1429 1436 1444 1448 1444 1450 1454 1457 1460 1461 1464 1466 1473 1475 1469 1452 1461 1462 1463 1452 1453 1457 1450 1446 1448 1425 1445 1445 1444 1443 1445 1446 1448 1451